Weather History for KSEZ - December, 2013

Change the Weather History Date:

Thursday, December 5, 2013

  Actual Average Record
Temperature  
Mean Temperature 34 °F -  
Max Temperature 39 °F 59 °F 71 °F (2012)
Min Temperature 28 °F 34 °F 28 °F (2011)
Degree Days  
Heating Degree Days 32    
Moisture  
Dew Point 23 °F    
Average Humidity 67    
Maximum Humidity 93    
Minimum Humidity 42    
Precipitation  
Precipitation 0.00 in - - ()
Sea Level Pressure  
Sea Level Pressure 29.89 in    
Wind  
Wind Speed 2 mph (WSW)    
Max Wind Speed 9 mph    
Max Gust Speed -    
Visibility 10 miles    
Events      
Averages and records for this station are not official NWS values.
T = Trace of Precipitation, MM = Missing Value Source: NWS Daily Summary

Daily Weather History Graph

Daily Weather History Graph

Search for Another Location

Airport or City:

Trip Planner

Search our weather history database for the weather conditions in past years. The results will help you decide how hot, cold, wet, or windy it might be!

Date:

Astronomy

Dec. 05, 2013 Rise Set
Actual Time 7:20 AM MST 5:15 PM MST
Civil Twilight 6:52 AM MST 5:43 PM MST
Nautical Twilight 6:20 AM MST 6:14 PM MST
Astronomical Twilight 5:50 AM MST 6:45 PM MST
Moon 9:46 AM MST (12/5) 8:36 PM MST (12/5)
Length of Visible Light 10h 51m
Length of Day
9h 55m
Waxing Crescent, 11% of the Moon is Illuminated
Dec 5
Waxing Crescent
Dec 9
First Quarter
Dec 17
Full
Dec 25
Last Quarter
Jan 1
New

Hourly Weather History & Observations

Time (MST) Temp. Windchill Dew Point Humidity Pressure Visibility Wind Dir Wind Speed Gust Speed Precip Events Conditions
12:15 AM 33.8 °F - 28.4 °F 81% 29.88 in 10.0 mi Calm Calm - N/A   Mostly Cloudy
12:35 AM 32.0 °F 28.7 °F 28.4 °F 87% 29.88 in 10.0 mi NE 3.5 mph - N/A   Overcast
12:55 AM 33.8 °F - 28.4 °F 81% 29.87 in 10.0 mi Calm Calm - N/A   Mostly Cloudy
1:15 AM 32.0 °F 27.5 °F 28.4 °F 87% 29.86 in 10.0 mi ENE 4.6 mph - N/A   Mostly Cloudy
1:35 AM 32.0 °F - 26.6 °F 80% 29.86 in 10.0 mi Calm Calm - N/A   Scattered Clouds
1:55 AM 32.0 °F - 28.4 °F 87% 29.86 in 10.0 mi Calm Calm - N/A   Mostly Cloudy
2:15 AM 32.0 °F - 26.6 °F 80% 29.86 in 10.0 mi Calm Calm - N/A   Scattered Clouds
2:35 AM 32.0 °F - 26.6 °F 80% 29.86 in 10.0 mi Calm Calm - N/A   Mostly Cloudy
2:55 AM 32.0 °F - 26.6 °F 80% 29.86 in 10.0 mi Calm Calm - N/A   Mostly Cloudy
3:15 AM 32.0 °F - 26.6 °F 80% 29.86 in 10.0 mi Calm Calm - N/A   Mostly Cloudy
3:35 AM 32.0 °F 28.7 °F 26.6 °F 80% 29.85 in 10.0 mi SE 3.5 mph - N/A   Scattered Clouds
3:55 AM 32.0 °F - 26.6 °F 80% 29.86 in 10.0 mi Calm Calm - N/A   Scattered Clouds
4:15 AM 32.0 °F - 26.6 °F 80% 29.85 in 10.0 mi Calm Calm - N/A   Scattered Clouds
4:35 AM 32.0 °F 28.7 °F 26.6 °F 80% 29.85 in 10.0 mi WNW 3.5 mph - N/A   Scattered Clouds
4:55 AM 30.2 °F - 26.6 °F 86% 29.85 in 10.0 mi Calm Calm - N/A   Clear
5:15 AM 30.2 °F - 26.6 °F 86% 29.85 in 10.0 mi Calm Calm - N/A   Clear
5:35 AM 30.2 °F - 26.6 °F 86% 29.85 in 10.0 mi Calm Calm - N/A   Clear
5:55 AM 30.2 °F - 26.6 °F 86% 29.86 in 10.0 mi Calm Calm - N/A   Scattered Clouds
6:15 AM 30.2 °F - 26.6 °F 86% 29.86 in 10.0 mi Calm Calm - N/A   Scattered Clouds
6:35 AM 30.2 °F - 26.6 °F 86% 29.86 in 10.0 mi Calm Calm - N/A   Scattered Clouds
6:55 AM 30.2 °F - 26.6 °F 86% 29.86 in 10.0 mi Calm Calm - N/A   Clear
7:15 AM 28.4 °F 24.6 °F 26.6 °F 93% 29.86 in 10.0 mi South 3.5 mph - N/A   Clear
7:35 AM 28.4 °F - 26.6 °F 93% 29.87 in 10.0 mi Calm Calm - N/A   Clear
7:55 AM 28.4 °F 23.3 °F 26.6 °F 93% 29.88 in 10.0 mi West 4.6 mph - N/A   Clear
8:15 AM 30.2 °F 26.7 °F 28.4 °F 93% 29.89 in 10.0 mi West 3.5 mph - N/A   Clear
8:35 AM 30.2 °F - 28.4 °F 93% 29.89 in 10.0 mi Calm Calm - N/A   Clear
8:55 AM 32.0 °F - 28.4 °F 87% 29.90 in 10.0 mi Calm Calm - N/A   Clear
9:15 AM 32.0 °F 28.7 °F 30.2 °F 93% 29.90 in 10.0 mi ESE 3.5 mph - N/A   Clear
9:35 AM 32.0 °F 27.5 °F 30.2 °F 93% 29.91 in 10.0 mi South 4.6 mph - N/A   Clear
9:55 AM 35.6 °F 30.7 °F 30.2 °F 81% 29.92 in 10.0 mi SSE 5.8 mph - N/A   Clear
10:15 AM 35.6 °F 31.7 °F 30.2 °F 81% 29.92 in 10.0 mi SSE 4.6 mph - N/A   Clear
10:35 AM 35.6 °F 29.9 °F 26.6 °F 70% 29.93 in 10.0 mi South 6.9 mph - N/A   Scattered Clouds
10:55 AM 35.6 °F 30.7 °F 28.4 °F 75% 29.93 in 10.0 mi SSW 5.8 mph - N/A   Scattered Clouds
11:15 AM 37.4 °F 32.1 °F 26.6 °F 65% 29.93 in 10.0 mi South 6.9 mph - N/A   Scattered Clouds
11:35 AM 37.4 °F 33.8 °F 23.0 °F 56% 29.93 in 10.0 mi SW 4.6 mph - N/A   Scattered Clouds
11:55 AM 39.2 °F 35.9 °F 23.0 °F 52% 29.92 in 10.0 mi WSW 4.6 mph - N/A   Scattered Clouds
12:15 PM 37.4 °F 32.8 °F 21.2 °F 52% 29.91 in 10.0 mi South 5.8 mph - N/A   Clear
12:35 PM 39.2 °F - 21.2 °F 49% 29.90 in 10.0 mi Calm Calm - N/A   Scattered Clouds
12:55 PM 37.4 °F 32.8 °F 19.4 °F 48% 29.90 in 10.0 mi WSW 5.8 mph - N/A   Scattered Clouds
1:15 PM 37.4 °F 31.4 °F 19.4 °F 48% 29.89 in 10.0 mi WNW 8.1 mph - N/A   Clear
1:35 PM 39.2 °F - 19.4 °F 45% 29.89 in 10.0 mi Calm Calm - N/A   Clear
1:55 PM 37.4 °F 33.8 °F 19.4 °F 48% 29.88 in 10.0 mi WNW 4.6 mph - N/A   Clear
2:35 PM 39.2 °F - 17.6 °F 42% 29.88 in 10.0 mi Calm Calm - N/A   Clear
2:55 PM 39.2 °F 33.6 °F 19.4 °F 45% 29.88 in 10.0 mi West 8.1 mph - N/A   Scattered Clouds
3:15 PM 39.2 °F 34.2 °F 17.6 °F 42% 29.88 in 10.0 mi West 6.9 mph - N/A   Scattered Clouds
3:35 PM 39.2 °F 34.2 °F 17.6 °F 42% 29.88 in 10.0 mi West 6.9 mph - N/A   Clear
3:55 PM 39.2 °F 35.9 °F 17.6 °F 42% 29.88 in 10.0 mi WSW 4.6 mph - N/A   Clear
4:15 PM 39.2 °F 37.0 °F 17.6 °F 42% 29.88 in 10.0 mi WSW 3.5 mph - N/A   Clear
4:35 PM 37.4 °F - 17.6 °F 45% 29.88 in 10.0 mi Calm Calm - N/A   Clear
4:55 PM 37.4 °F 32.8 °F 17.6 °F 45% 29.89 in 10.0 mi WSW 5.8 mph - N/A   Clear
5:15 PM 35.6 °F 31.7 °F 17.6 °F 48% 29.89 in 10.0 mi WSW 4.6 mph - N/A   Scattered Clouds
5:35 PM 33.8 °F 28.6 °F 17.6 °F 52% 29.89 in 10.0 mi West 5.8 mph - N/A   Scattered Clouds
5:55 PM 33.8 °F 28.6 °F 17.6 °F 52% 29.89 in 10.0 mi West 5.8 mph - N/A   Scattered Clouds
6:15 PM 33.8 °F 28.6 °F 15.8 °F 48% 29.89 in 10.0 mi West 5.8 mph - N/A   Mostly Cloudy
6:35 PM 33.8 °F - 17.6 °F 52% 29.91 in 10.0 mi Calm Calm - N/A   Mostly Cloudy
6:55 PM 32.0 °F 27.5 °F 17.6 °F 55% 29.92 in 10.0 mi SW 4.6 mph - N/A   Overcast
7:15 PM 32.0 °F 26.4 °F 17.6 °F 55% 29.93 in 10.0 mi WNW 5.8 mph - N/A   Overcast
7:35 PM 32.0 °F 24.2 °F 17.6 °F 55% 29.93 in 10.0 mi NW 9.2 mph - N/A   Scattered Clouds
7:55 PM 32.0 °F 24.8 °F 17.6 °F 55% 29.93 in 10.0 mi West 8.1 mph - N/A   Clear
8:15 PM 32.0 °F 27.5 °F 17.6 °F 55% 29.94 in 10.0 mi SSW 4.6 mph - N/A   Clear
8:35 PM 32.0 °F 26.4 °F 17.6 °F 55% 29.95 in 10.0 mi SW 5.8 mph - N/A   Clear
8:55 PM 30.2 °F 26.7 °F 15.8 °F 55% 29.96 in 10.0 mi WSW 3.5 mph - N/A   Clear
9:15 PM 30.2 °F 25.4 °F 15.8 °F 55% 29.97 in 10.0 mi WSW 4.6 mph - N/A   Clear
9:35 PM 30.2 °F 25.4 °F 15.8 °F 55% 29.97 in 10.0 mi SW 4.6 mph - N/A   Clear
9:55 PM 30.2 °F 25.4 °F 15.8 °F 55% 29.97 in 10.0 mi WSW 4.6 mph - N/A   Clear
10:15 PM 28.4 °F 22.2 °F 14.0 °F 55% 29.98 in 10.0 mi West 5.8 mph - N/A   Clear